| time (UTC) | temp C | wind direction | speed KPH | gust KPH | rain 1hr cm | rain 24hr cm | rain mn cm | humidity % | barometer mb |
| 20260504140507 | 16 | 200 | 3.2 | 9.7 | 0.00 | 0.00 | 0.00 | 57 | 1014.9 |
| 20260504130507 | 13 | 98 | 3.2 | 9.7 | 0.00 | 0.00 | 0.00 | 68 | 1015.4 |
| 20260504110507 | 5 | 90 | 0.0 | 0.0 | 0.00 | 0.00 | 0.00 | 89 | 1016.0 |
| 20260504100508 | 5 | 90 | 0.0 | 3.2 | 0.00 | 0.00 | 0.00 | 87 | 1016.1 |
| 20260504082007 | 5 | 178 | 0.0 | 0.0 | 0.00 | 0.00 | 0.00 | 85 | 1016.1 |
| 20260504081508 | 5 | 178 | 0.0 | 3.2 | 0.00 | 0.00 | 0.00 | 85 | 1016.0 |
| 20260504081007 | 5 | 178 | 0.0 | 3.2 | 0.00 | 0.00 | 0.00 | 85 | 1016.0 |
| 20260504080506 | 5 | 178 | 1.6 | 3.2 | 0.00 | 0.00 | 0.00 | 85 | 1015.9 |
| 20260504050506 | 6 | 292 | 0.0 | 0.0 | 0.00 | 0.00 | 0.00 | 75 | 1016.0 |
| 20260504050009 | 6 | 292 | 0.0 | 0.0 | 0.00 | 0.00 | 0.00 | 75 | 1016.1 |
| 20260504045506 | 6 | 292 | 0.0 | 0.0 | 0.00 | 0.00 | 0.00 | 74 | 1016.0 |
| 20260504045007 | 6 | 292 | 0.0 | 0.0 | 0.00 | 0.00 | 0.00 | 74 | 1016.1 |
| 20260504044509 | 6 | 292 | 0.0 | 0.0 | 0.00 | 0.00 | 0.00 | 74 | 1015.9 |
| 20260504044009 | 6 | 292 | 0.0 | 0.0 | 0.00 | 0.00 | 0.00 | 74 | 1015.9 |
| 20260504043508 | 6 | 292 | 0.0 | 0.0 | 0.00 | 0.00 | 0.00 | 73 | 1015.9 |
| 20260504043010 | 6 | 292 | 0.0 | 0.0 | 0.00 | 0.00 | 0.00 | 73 | 1015.8 |
| 20260504042508 | 6 | 292 | 0.0 | 0.0 | 0.00 | 0.00 | 0.00 | 73 | 1015.7 |
| 20260504041509 | 6 | 292 | 0.0 | 0.0 | 0.00 | 0.00 | 0.00 | 73 | 1015.6 |
| 20260504040508 | 6 | 292 | 0.0 | 1.6 | 0.00 | 0.00 | 0.00 | 72 | 1015.6 |
| 20260504040019 | 6 | 292 | 0.0 | 1.6 | 0.00 | 0.00 | 0.00 | 72 | 1015.5 |
| 20260504035008 | 6 | 292 | 0.0 | 0.0 | 0.00 | 0.00 | 0.00 | 72 | 1015.4 |
| 20260504034010 | 6 | 292 | 0.0 | 0.0 | 0.00 | 0.00 | 0.00 | 71 | 1015.5 |
| 20260504033508 | 6 | 292 | 0.0 | 0.0 | 0.00 | 0.00 | 0.00 | 70 | 1015.4 |
| 20260504033008 | 6 | 292 | 0.0 | 0.0 | 0.00 | 0.00 | 0.00 | 69 | 1015.3 |
| 20260504032509 | 6 | 292 | 0.0 | 0.0 | 0.00 | 0.00 | 0.00 | 69 | 1015.4 |
| 20260504032008 | 6 | 292 | 0.0 | 0.0 | 0.00 | 0.00 | 0.00 | 69 | 1015.4 |
| 20260504031508 | 6 | 292 | 0.0 | 0.0 | 0.00 | 0.00 | 0.00 | 69 | 1015.3 |
| 20260504031010 | 7 | 292 | 0.0 | 0.0 | 0.00 | 0.00 | 0.00 | 68 | 1015.3 |
| 20260504030508 | 7 | 292 | 0.0 | 0.0 | 0.00 | 0.00 | 0.00 | 68 | 1015.3 |
| 20260504030010 | 7 | 292 | 0.0 | 0.0 | 0.00 | 0.00 | 0.00 | 67 | 1015.2 |
| 20260504025509 | 7 | 292 | 0.0 | 0.0 | 0.00 | 0.00 | 0.00 | 65 | 1015.2 |
| 20260504025009 | 7 | 292 | 0.0 | 0.0 | 0.00 | 0.00 | 0.00 | 65 | 1015.3 |
| 20260504024009 | 7 | 292 | 0.0 | 0.0 | 0.00 | 0.00 | 0.00 | 64 | 1015.4 |
| 20260504023508 | 7 | 292 | 0.0 | 0.0 | 0.00 | 0.00 | 0.00 | 64 | 1015.4 |
| 20260504023009 | 8 | 292 | 0.0 | 0.0 | 0.00 | 0.00 | 0.00 | 64 | 1015.3 |
| 20260504022509 | 8 | 292 | 0.0 | 0.0 | 0.00 | 0.00 | 0.00 | 63 | 1015.3 |
| 20260504022009 | 8 | 292 | 0.0 | 0.0 | 0.00 | 0.00 | 0.00 | 63 | 1015.4 |
| 20260504020508 | 8 | 292 | 0.0 | 0.0 | 0.00 | 0.00 | 0.00 | 61 | 1015.4 |
| 20260504020009 | 8 | 292 | 0.0 | 0.0 | 0.00 | 0.00 | 0.00 | 60 | 1015.3 |
| 20260504015008 | 9 | 292 | 0.0 | 0.0 | 0.00 | 0.00 | 0.00 | 59 | 1015.3 |
| 20260504014508 | 9 | 292 | 0.0 | 0.0 | 0.00 | 0.00 | 0.00 | 58 | 1015.3 |
| 20260504013508 | 10 | 292 | 0.0 | 0.0 | 0.00 | 0.00 | 0.00 | 56 | 1015.3 |
| 20260504013009 | 10 | 292 | 0.0 | 0.0 | 0.00 | 0.00 | 0.00 | 55 | 1015.2 |
| 20260504012509 | 10 | 292 | 0.0 | 0.0 | 0.00 | 0.00 | 0.00 | 55 | 1015.1 |
| 20260504012008 | 10 | 292 | 0.0 | 0.0 | 0.00 | 0.00 | 0.00 | 55 | 1015.0 |
| 20260504011507 | 10 | 292 | 0.0 | 0.0 | 0.00 | 0.00 | 0.00 | 55 | 1014.9 |
| 20260504011011 | 10 | 292 | 0.0 | 0.0 | 0.00 | 0.00 | 0.00 | 54 | 1014.7 |
| 20260504010508 | 11 | 292 | 0.0 | 0.0 | 0.00 | 0.00 | 0.00 | 54 | 1014.7 |
| 20260504010010 | 11 | 292 | 0.0 | 0.0 | 0.00 | 0.00 | 0.00 | 53 | 1014.7 |
| 20260504005509 | 11 | 292 | 0.0 | 0.0 | 0.00 | 0.00 | 0.00 | 54 | 1014.5 |
| 20260504005008 | 11 | 292 | 0.0 | 0.0 | 0.00 | 0.00 | 0.00 | 53 | 1014.5 |
| 20260504004507 | 11 | 292 | 0.0 | 0.0 | 0.00 | 0.00 | 0.00 | 52 | 1014.5 |
| 20260504004010 | 11 | 292 | 0.0 | 0.0 | 0.00 | 0.00 | 0.00 | 52 | 1014.4 |
| 20260504003507 | 11 | 292 | 0.0 | 0.0 | 0.00 | 0.00 | 0.00 | 52 | 1014.5 |
| 20260504003010 | 11 | 292 | 0.0 | 0.0 | 0.00 | 0.00 | 0.00 | 50 | 1014.3 |
| 20260504002510 | 11 | 292 | 0.0 | 0.0 | 0.00 | 0.00 | 0.00 | 51 | 1014.2 |
| 20260504002008 | 11 | 292 | 0.0 | 0.0 | 0.00 | 0.00 | 0.00 | 49 | 1014.1 |
| 20260504001508 | 11 | 292 | 0.0 | 0.0 | 0.00 | 0.00 | 0.00 | 49 | 1014.0 |
| 20260504001010 | 12 | 292 | 0.0 | 3.2 | 0.00 | 0.00 | 0.00 | 48 | 1014.0 |
| 20260504000508 | 12 | 292 | 0.0 | 3.2 | 0.00 | 0.00 | 0.00 | 47 | 1014.0 |
| 20260504000010 | 12 | 292 | 0.0 | 1.6 | 0.00 | 0.00 | 0.00 | 45 | 1014.1 |
| 20260503235509 | 12 | 292 | 0.0 | 0.0 | 0.00 | 0.00 | 0.00 | 45 | 1014.0 |
| 20260503235009 | 13 | 292 | 0.0 | 3.2 | 0.00 | 0.00 | 0.00 | 43 | 1014.0 |
| 20260503233507 | 13 | 329 | 3.2 | 6.4 | 0.00 | 0.00 | 0.00 | 41 | 1013.9 |
| 20260503233009 | 13 | 313 | 3.2 | 6.4 | 0.00 | 0.00 | 0.00 | 41 | 1013.9 |
| 20260503232509 | 13 | 292 | 1.6 | 6.4 | 0.00 | 0.00 | 0.00 | 42 | 1013.9 |
| 20260503232008 | 14 | 292 | 1.6 | 12.9 | 0.00 | 0.00 | 0.00 | 40 | 1013.7 |
| 20260503231509 | 14 | 294 | 3.2 | 16.1 | 0.00 | 0.00 | 0.00 | 40 | 1013.8 |
| 20260503231008 | 14 | 320 | 6.4 | 16.1 | 0.00 | 0.00 | 0.00 | 38 | 1013.7 |
| 20260503230507 | 14 | 348 | 4.8 | 14.5 | 0.00 | 0.00 | 0.00 | 38 | 1013.8 |
| 20260503225507 | 14 | 322 | 1.6 | 17.7 | 0.00 | 0.00 | 0.00 | 39 | 1013.7 |
| 20260503225008 | 14 | 301 | 3.2 | 14.5 | 0.00 | 0.00 | 0.00 | 39 | 1013.7 |
| 20260503224509 | 15 | 333 | 3.2 | 16.1 | 0.00 | 0.00 | 0.00 | 40 | 1013.7 |
| 20260503224008 | 15 | 282 | 6.4 | 16.1 | 0.00 | 0.00 | 0.00 | 37 | 1013.7 |
| 20260503223507 | 15 | 300 | 3.2 | 12.9 | 0.00 | 0.00 | 0.00 | 40 | 1013.6 |
| 20260503222508 | 15 | 257 | 3.2 | 12.9 | 0.00 | 0.00 | 0.00 | 38 | 1013.6 |
| 20260503222008 | 15 | 281 | 4.8 | 14.5 | 0.00 | 0.00 | 0.00 | 37 | 1013.6 |
| 20260503221510 | 15 | 275 | 4.8 | 16.1 | 0.00 | 0.00 | 0.00 | 38 | 1013.6 |
| 20260503221008 | 15 | 335 | 4.8 | 12.9 | 0.00 | 0.00 | 0.00 | 38 | 1013.5 |
| 20260503220507 | 15 | 349 | 4.8 | 12.9 | 0.00 | 0.00 | 0.00 | 38 | 1013.6 |
| 20260503220011 | 15 | 300 | 247.8 | 1054.1 | 18.69 | 0.00 | 0.00 | 37 | |
| 20260503215508 | 15 | 315 | 8.0 | 22.5 | 0.00 | 0.00 | 0.00 | 36 | 1013.5 |
| 20260503214508 | 15 | 295 | 8.0 | 22.5 | 0.00 | 0.00 | 0.00 | 37 | 1013.6 |
| 20260503214010 | 15 | 275 | 3.2 | 25.7 | 0.00 | 0.00 | 0.00 | 37 | 1013.5 |
| 20260503212508 | 15 | 343 | 4.8 | 24.1 | 0.00 | 0.00 | 0.00 | 37 | 1013.6 |
| 20260503212011 | 15 | 312 | 8.0 | 24.1 | 0.00 | 0.00 | 0.00 | 37 | 1013.4 |
| 20260503211508 | 15 | 309 | 1.6 | 19.3 | 0.00 | 0.00 | 0.00 | 38 | 1013.6 |
| 20260503211010 | 15 | 321 | 3.2 | 14.5 | 0.00 | 0.00 | 0.00 | 38 | 1013.6 |
| 20260503210508 | 15 | 325 | 8.0 | 14.5 | 0.00 | 0.00 | 0.00 | 36 | 1013.7 |
| 20260503210009 | 15 | 279 | 4.8 | 12.9 | 0.00 | 0.00 | 0.00 | 41 | 1013.5 |
| 20260503205508 | 16 | 334 | 3.2 | 16.1 | 0.00 | 0.00 | 0.00 | 38 | 1013.6 |
| 20260503205009 | 15 | 319 | 4.8 | 24.1 | 0.00 | 0.00 | 0.00 | 40 | 1013.6 |
| 20260503204508 | 15 | 240 | 4.8 | 24.1 | 0.00 | 0.00 | 0.00 | 41 | 1013.6 |
| 20260503204009 | 15 | 316 | 8.0 | 24.1 | 0.00 | 0.00 | 0.00 | 39 | 1013.7 |
| 20260503203508 | 15 | 308 | 8.0 | 22.5 | 0.00 | 0.00 | 0.00 | 37 | 1013.7 |
| 20260503203010 | 15 | 40 | 6.4 | 22.5 | 0.00 | 0.00 | 0.00 | 39 | 1013.7 |
| 20260503202508 | 15 | 315 | 8.0 | 19.3 | 0.00 | 0.00 | 0.00 | 41 | 1013.7 |
| 20260503201011 | 15 | 328 | 8.0 | 24.1 | 0.00 | 0.00 | 0.00 | 38 | 1013.9 |
| 20260503200507 | 15 | 313 | 6.4 | 19.3 | 0.00 | 0.00 | 0.00 | 38 | 1013.8 |
| 20260503195507 | 14 | 355 | 8.0 | 24.1 | 0.00 | 0.00 | 0.00 | 40 | 1013.8 |
| 20260503195007 | 14 | 310 | 8.0 | 24.1 | 0.00 | 0.00 | 0.00 | 40 | 1014.0 |
| 20260503194508 | 14 | 315 | 9.7 | 30.6 | 0.00 | 0.00 | 0.00 | 38 | 1014.0 |
| 20260503194007 | 14 | 5 | 11.3 | 30.6 | 0.00 | 0.00 | 0.00 | 39 | 1014.1 |
| 20260503193507 | 13 | 326 | 6.4 | 25.7 | 0.00 | 0.00 | 0.00 | 39 | 1014.1 |
| 20260503193009 | 14 | 317 | 14.5 | 25.7 | 0.00 | 0.00 | 0.00 | 38 | 1014.1 |
| 20260503192008 | 15 | 209 | 6.4 | 22.5 | 0.00 | 0.00 | 0.00 | 39 | 1014.1 |
| 20260503191507 | 15 | 288 | 11.3 | 22.5 | 0.00 | 0.00 | 0.00 | 38 | 1014.2 |
| 20260503191011 | 15 | 308 | 6.4 | 32.2 | 0.00 | 0.00 | 0.00 | 40 | 1014.4 |
| 20260503190507 | 14 | 294 | 8.0 | 32.2 | 0.00 | 0.00 | 0.00 | 40 | 1014.3 |
| 20260503190009 | 15 | 319 | 12.9 | 20.9 | 0.00 | 0.00 | 0.00 | 37 | 1014.2 |
| 20260503185507 | 15 | 299 | 8.0 | 19.3 | 0.00 | 0.00 | 0.00 | 41 | 1014.3 |
| 20260503184507 | 13 | 340 | 14.5 | 27.4 | 0.00 | 0.00 | 0.00 | 39 | 1014.5 |
| 20260503184010 | 13 | 348 | 14.5 | 27.4 | 0.00 | 0.00 | 0.00 | 39 | 1014.5 |
| 20260503183507 | 14 | 355 | 12.9 | 27.4 | 0.00 | 0.00 | 0.00 | 37 | 1014.4 |
| 20260503183008 | 15 | 25 | 8.0 | 20.9 | 0.00 | 0.00 | 0.00 | 38 | 1014.5 |
| 20260503182008 | 14 | 216 | 6.4 | 24.1 | 0.00 | 0.00 | 0.00 | 42 | 1014.5 |
| 20260503181507 | 14 | 348 | 9.7 | 24.1 | 0.00 | 0.00 | 0.00 | 40 | 1014.6 |
| 20260503181009 | 13 | 15 | 6.4 | 30.6 | 0.00 | 0.00 | 0.00 | 40 | 1014.7 |
| 20260503180507 | 13 | 269 | 4.8 | 30.6 | 0.00 | 0.00 | 0.00 | 43 | 1014.6 |
| 20260503175508 | 13 | 328 | 9.7 | 24.1 | 0.00 | 0.00 | 0.00 | 41 | 1014.5 |
| 20260503175007 | 13 | 80 | 8.0 | 24.1 | 0.00 | 0.00 | 0.00 | 41 | 1014.6 |
| 20260503174507 | 13 | 329 | 9.7 | 20.9 | 0.00 | 0.00 | 0.00 | 43 | 1014.7 |
| 20260503173507 | 13 | 28 | 6.4 | 20.9 | 0.00 | 0.00 | 0.00 | 43 | 1014.9 |
| 20260503172007 | 12 | 57 | 11.3 | 19.3 | 0.00 | 0.00 | 0.00 | 41 | 1014.9 |
| 20260503171507 | 12 | 320 | 8.0 | 19.3 | 0.00 | 0.00 | 0.00 | 44 | 1014.9 |
| 20260503171009 | 13 | 209 | 6.4 | 19.3 | 0.00 | 0.00 | 0.00 | 47 | 1014.9 |
| 20260503170506 | 13 | 299 | 6.4 | 20.9 | 0.00 | 0.00 | 0.00 | 41 | 1014.8 |
| 20260503151008 | 11 | 327 | 6.4 | 27.4 | 0.00 | 0.00 | 0.00 | 51 | 1015.4 |
| 20260503150506 | 10 | 78 | 6.4 | 27.4 | 0.00 | 0.00 | 0.00 | 54 | 1015.6 |